Location: Peterborough
(44.3091°N, 78.3197°W)
Time: 04:47:08
(UTC-04:00)

Tiros 1 despin weight - Pass Details

Date: 29 March 2023
Orbit: 586 x 632 km, 48.2° (Epoch: 08 June)

Event Time Altitude Azimuth Distance (km) Brightness Sun altitude
Rises 01:57:36 0° 292° (WNW) 2,829 - -41.6°
Reaches altitude 10° 01:59:54 10° 289° (WNW) 1,932 - -41.5°
Maximum altitude 02:04:15 61° 209° (SSW) 684 - -41.3°
Drops below altitude 10° 02:08:41 10° 129° (SE) 1,954 - -41.1°
Sets 02:11:01 0° 126° (SE) 2,864 - -40.9°
